SCP
0 0 0 0 0 0 0 0 0 0 0 0 0 0 0 0 0 0 0 0 0 0 0 0 0 0 0 0 0 0 0 0 0 -0 -0 0 0 0
0 0 0 0 0 0 0 0 0 0 0 0 0 0 0 0 0 0 0 0 0 0 0 0 0 0 0 0 0 0 0 0 0 0 0 0 0 0
0 0 0 0 0 0 0 0 0 0 0 0 0 0 0 0 0 0 0 0 0 0 0 0 0 0 0 0 0 0 0 0 0 0 0 0 0 0
0 0 0 0 0 0 0 0 0 0 0 0 0 0 0 0 0 0 0 0 0 0 0 0 0 0 0 0 0 0 0 0 0 0 0 0 0 0
0 0 0 0 0 0 0 0 0 0 0 0 0 0 0 0 0 0 0 0 0 0 0 0 0 0 0 0 0 0 0 0 0 0 0 0 0 0
0 0 0 0 0 0 0 0 0 0 0 0 0 0 0 0 0 0 0 0 0 0 0 0 0 0 0 0 0 0 0 0 0 0 0 0 0 0
0 0 0 0 0 0 0 0 0 0 0 0 0 0 0 0 0 0 0 0 0 0 0 0 0 0 0 0 0 0 0 0 0 0 0 0 0 0
0 0 -0 0 0 0 0 0 0 0 0 0 0 0 0 0 0 0 0 0 0 0 0 0 0 0 0 0 0 0 0 0 0 0 0 0 0 0
0 0 0 0 0 0 0 0 0 0 0 0 0 0 0 0 0 0 0 0 0 0 0 0 0 0 0 0 0 0 0 0 0 0 0 0 0 0
0 0 0 0 0 0 0 0 0 0 0 0 0 0 0 0 0 0 0 0 0 0 0 0 0 0 0 0 0 0 0 0 0 0 0 0 0 0
0 -0 -0 0 0 0 0 0 0 0 0 0 0 0 0 0 0 0 0 0 0 0 0 0 0 0 0 0 0 0 0 0 0 0 0 0 0 0
0 0 0 0 0 0 0 0 0 0 0 0 0 0 0 0 0 0 0 0 0 0 0 0 0 0 0 0 0 0 0 0 0 0 0 0 0 0
0 0 0 0 0 0 0 0 0 0 0 0 0 0 0 0 0 0 0 0 0 0 0 0 0 0 0 0 0 0 0 0 0 0 0 0 0 0
0 0 0 0 0 0 0 0 0 0 0 0 0 0 0 0 0 0 0 0 0 0 0 0 0 0 0 0 0 0 0 0 0 0 0 0 0 0
0 0 0 0 0 0 0 0 0 0 0 0 0 0 0 0 0 0 0 0 0 0 0 0 0 0 0 0 0 0 0 0 0 0 0 0 0 0
0 -0 -0 0 0 0 0 0 0 0 0 0 0 0 0 0 0 0 0 0 0 0 0 0 0 0 0 0 0 0 0 0 0 0 0 0 0 0
-0 -0 0 0 0 0 0 0 0 0 0 0 0 0 0 0 0 0 0 0 0 0 0 0 0 0 0 0 0 0 0 0 0 0 0 0 0 0
-0 -0 0 0 0 0 0 0 0 0 0 0 0 0 0 0 0 0 0 0 0 0 0 0 0 0 0 0 0 0 0 0 0 0 0 0 0 0
0 0 0 0 0 0 0 0 0 0 0 0 0 0 0 0 0 0 0 0 0 0 0 0 0 0 0 0 0 0 0 0 0 0 0 0 0 0
-0 0 0 0 0 0 0 0 0 0 0 0 0 0 0 0 0 0 0 0 0 0 0 0 0 0 0 0 0 0 0 0 0 0 0 0 0 0
0 0 0 0 0 0 0 0 0 0 0 0 0 0 0 0 0 0 0 -0 -0 0 0 -0 -0 -0 -0 0 0 0 0 -0 0 0 0 0 0 0
0 0 0 0 0 0 0 -0 -0 0 0 0 0 0 0 0 0 0 0 0 0 0 -0 -0 -0 -0 0 0 -0 0 -0 0 0 0 0 0 0 0
0 0 0 0 0 -0 0 0 0 0 0 0 0 0 0 0 0 0 0 0 0 0 0 0 0 0 0 0 0 -0 0 0 -0 -0 -0 -0 -0 0
Wind_Speed_500mb
67 41 28 38 52 62 40 11 18 14 14 21 17 8 20 34 33 44 47 43 47 46 46 47 50 49 47 46 42 38 43 43 39 39 40 43 36 31
37 27 23 16 31 21 28 26 25 26 14 12 19 22 33 39 46 44 39 31 28 30 37 46 50 45 45 44 40 37 43 47 45 44 35 31 24 8
40 30 28 19 12 2 7 11 18 14 19 27 29 32 34 35 39 40 37 24 27 27 39 50 53 47 38 40 41 39 42 50 47 42 36 37 43 38
37 34 34 28 26 24 19 12 10 10 15 24 22 24 27 26 37 43 40 28 34 26 37 44 43 42 35 35 37 39 45 45 51 48 39 36 45 51
36 30 25 23 27 22 14 9 6 9 12 22 27 29 35 38 45 42 40 43 38 36 36 36 26 39 41 35 31 35 44 51 49 46 51 45 41 42
41 33 28 25 20 12 10 10 13 15 19 25 30 31 35 39 37 46 52 48 48 40 31 10 25 42 35 32 34 41 40 47 54 58 54 49 52 51
40 35 31 28 23 22 24 24 23 24 24 27 29 37 43 40 39 43 47 57 61 50 30 35 44 44 35 30 40 46 58 55 43 50 56 64 58 50
27 30 28 20 20 21 20 21 20 22 24 26 33 40 39 42 47 49 54 53 61 55 49 62 51 54 49 36 36 44 59 59 55 45 45 51 57 60
27 15 20 29 31 30 25 20 14 6 11 17 19 26 34 37 47 58 61 66 67 68 73 72 63 60 48 37 40 44 57 55 46 46 43 43 48 56
35 36 34 39 42 41 36 28 21 13 17 26 35 45 48 52 55 59 61 60 63 61 49 65 56 59 60 56 47 49 60 52 50 41 43 42 45 48
36 39 41 45 46 43 40 35 33 33 32 30 25 24 32 36 37 47 52 53 59 62 54 56 58 56 45 49 45 48 47 49 41 31 32 37 43 44
25 27 39 42 42 43 41 40 45 45 44 41 39 37 33 33 33 32 39 45 55 59 44 55 56 55 65 63 35 25 34 32 31 34 35 36 31 32
36 39 44 47 44 41 39 40 41 38 40 42 43 42 41 44 43 39 39 49 63 71 60 60 59 54 58 62 64 64 68 69 59 54 45 40 42 40
39 41 45 48 43 40 42 42 40 38 41 45 45 47 50 48 46 46 44 42 42 52 55 58 62 61 64 66 66 57 60 62 55 48 50 40 39 43
37 41 42 46 44 42 42 41 43 44 48 49 51 53 50 51 50 50 48 49 51 49 48 46 53 58 63 67 70 67 65 69 65 65 49 45 47 44
39 38 37 41 41 44 45 45 43 41 42 44 51 51 54 54 53 51 55 57 58 57 48 47 49 55 61 64 67 73 70 65 59 56 51 57 54 46
40 42 46 48 52 50 47 45 44 44 45 49 51 54 56 55 56 55 55 56 57 60 62 56 49 51 58 56 68 65 68 66 61 60 58 47 46 44
44 46 48 51 52 53 54 54 53 51 51 52 52 56 58 60 63 65 59 52 57 60 59 58 60 56 57 60 57 58 57 61 56 52 52 47 48 49
55 54 54 55 54 54 57 58 61 59 58 59 61 66 68 67 70 68 63 59 61 60 61 59 54 46 58 53 50 44 46 42 46 52 45 47 52 49
61 62 62 61 61 61 61 63 65 65 63 63 63 66 65 67 71 68 64 61 61 61 61 53 48 46 53 53 51 49 37 42 41 42 42 43 45 46
69 66 63 61 60 59 59 62 65 66 64 66 68 71 72 72 71 65 61 57 57 58 62 57 48 37 40 45 46 46 40 42 38 39 40 39 42 36
68 64 59 58 58 59 63 68 69 68 68 72 76 77 75 70 65 62 58 59 57 58 58 55 44 37 31 38 37 34 33 33 32 31 34 32 28 16
70 65 65 63 64 67 69 69 70 71 74 80 80 75 70 67 61 58 57 56 58 58 53 56 51 40 35 26 24 24 18 16 21 23 23 17 16 20
Wind_Direction_500mb
208 203 241 265 283 247 265 249 223 201 173 145 163 235 273 286 295 295 300 298 294 291 288 285 284 282 281 283 285 286 280 273 271 273 274 277 263 283
175 189 191 208 231 212 221 263 272 241 217 174 221 283 276 291 304 304 300 306 309 314 304 297 299 293 279 273 271 271 274 275 270 272 269 261 265 285
122 128 124 141 176 165 195 207 237 257 253 253 264 272 288 303 308 299 304 306 303 286 299 300 301 301 291 276 266 260 260 266 269 266 263 253 236 236
109 124 128 148 138 141 152 159 211 230 260 272 284 297 302 294 285 292 300 280 271 274 281 296 303 305 300 290 277 267 266 262 259 258 253 245 244 247
85 92 103 120 114 118 131 156 249 275 286 292 304 302 294 289 286 290 284 282 285 270 272 283 303 298 307 308 287 271 269 263 258 253 253 247 245 245
54 52 47 54 62 49 9 342 330 327 335 323 319 312 302 299 304 296 292 290 291 289 298 254 268 269 280 296 296 289 282 273 260 258 255 252 245 245
45 24 21 20 10 355 345 335 334 334 327 324 315 299 301 308 303 307 311 308 307 311 295 266 261 269 270 292 297 292 290 287 276 263 255 251 247 243
67 47 9 355 356 0 351 352 340 329 325 330 324 323 316 310 306 303 302 307 311 305 296 289 280 287 283 264 287 288 284 283 275 267 263 254 248 242
31 35 15 360 355 356 359 1 357 348 325 309 288 285 291 292 298 299 301 304 298 297 299 299 304 303 294 273 272 275 281 289 282 272 262 257 252 249
22 13 3 359 3 3 2 3 12 9 295 296 298 298 300 301 299 304 303 300 301 305 306 295 304 297 293 288 277 276 274 284 285 271 265 264 259 253
19 7 355 360 1 0 3 3 353 345 340 335 326 321 303 292 293 303 306 309 298 300 305 295 299 301 305 308 292 264 268 276 289 276 277 265 261 262
21 6 3 4 3 5 8 360 354 353 350 347 342 330 330 324 302 293 298 309 307 304 308 294 295 296 301 295 281 266 267 268 282 282 270 266 267 271
18 14 10 8 6 8 9 0 358 353 348 344 343 344 342 334 328 317 301 290 294 292 292 305 308 297 283 284 279 267 276 285 286 279 271 263 255 255
18 16 9 1 5 7 6 4 360 356 352 349 350 342 336 337 335 333 328 318 305 299 301 291 292 289 281 282 286 284 275 275 268 263 260 267 255 248
19 17 360 360 5 5 6 0 360 358 352 351 342 336 339 337 333 331 325 319 308 300 301 301 290 288 283 277 276 278 276 272 263 266 257 256 254 260
16 9 357 1 8 4 3 1 1 354 348 340 334 341 337 334 333 331 324 323 320 311 305 299 299 289 281 278 278 281 278 262 265 256 248 252 249 253
10 5 5 4 5 1 359 357 355 350 348 344 348 338 337 336 331 329 325 324 319 316 311 311 303 302 299 284 273 279 279 272 266 256 250 242 249 248
14 9 3 1 358 355 353 352 353 350 346 346 341 343 338 335 333 332 329 323 316 314 312 308 304 305 309 299 271 276 274 269 264 256 248 249 250 252
15 8 2 357 352 350 349 349 347 347 346 345 345 344 341 335 334 333 329 324 319 317 314 312 311 306 301 290 279 286 277 277 258 248 242 240 252 258
11 5 359 354 352 350 349 348 347 347 345 344 342 339 339 337 332 331 330 326 322 323 321 322 315 298 306 287 289 284 284 264 248 242 240 250 258 260
6 2 360 356 351 348 345 341 341 340 341 341 340 339 338 334 332 331 331 331 329 328 324 326 327 313 297 298 287 281 283 268 257 255 264 268 265 257
4 1 358 354 351 347 343 341 342 342 342 342 340 338 335 333 335 335 336 334 335 334 332 338 339 330 306 297 291 284 283 280 259 253 270 269 248 230
5 4 3 358 354 349 347 345 344 343 343 340 335 334 337 339 340 339 339 339 338 340 342 339 338 325 320 311 296 295 270 257 277 276 280 269 254 242
Wind_Speed_850mb
67 41 28 38 52 62 40 11 18 14 14 21 17 8 20 34 33 44 47 43 47 46 46 47 50 49 47 46 42 38 43 43 39 39 40 43 36 31
37 27 23 16 31 21 28 26 25 26 14 12 19 22 33 39 46 44 39 31 28 30 37 46 50 45 45 44 40 37 43 47 45 44 35 31 24 8
40 30 28 19 12 2 7 11 18 14 19 27 29 32 34 35 39 40 37 24 27 27 39 50 53 47 38 40 41 39 42 50 47 42 36 37 43 38
37 34 34 28 26 24 19 12 10 10 15 24 22 24 27 26 37 43 40 28 34 26 37 44 43 42 35 35 37 39 45 45 51 48 39 36 45 51
36 30 25 23 27 22 14 9 6 9 12 22 27 29 35 38 45 42 40 43 38 36 36 36 26 39 41 35 31 35 44 51 49 46 51 45 41 42
41 33 28 25 20 12 10 10 13 15 19 25 30 31 35 39 37 46 52 48 48 40 31 10 25 42 35 32 34 41 40 47 54 58 54 49 52 51
40 35 31 28 23 22 24 24 23 24 24 27 29 37 43 40 39 43 47 57 61 50 30 35 44 44 35 30 40 46 58 55 43 50 56 64 58 50
27 30 28 20 20 21 20 21 20 22 24 26 33 40 39 42 47 49 54 53 61 55 49 62 51 54 49 36 36 44 59 59 55 45 45 51 57 60
27 15 20 29 31 30 25 20 14 6 11 17 19 26 34 37 47 58 61 66 67 68 73 72 63 60 48 37 40 44 57 55 46 46 43 43 48 56
35 36 34 39 42 41 36 28 21 13 17 26 35 45 48 52 55 59 61 60 63 61 49 65 56 59 60 56 47 49 60 52 50 41 43 42 45 48
36 39 41 45 46 43 40 35 33 33 32 30 25 24 32 36 37 47 52 53 59 62 54 56 58 56 45 49 45 48 47 49 41 31 32 37 43 44
25 27 39 42 42 43 41 40 45 45 44 41 39 37 33 33 33 32 39 45 55 59 44 55 56 55 65 63 35 25 34 32 31 34 35 36 31 32
36 39 44 47 44 41 39 40 41 38 40 42 43 42 41 44 43 39 39 49 63 71 60 60 59 54 58 62 64 64 68 69 59 54 45 40 42 40
39 41 45 48 43 40 42 42 40 38 41 45 45 47 50 48 46 46 44 42 42 52 55 58 62 61 64 66 66 57 60 62 55 48 50 40 39 43
37 41 42 46 44 42 42 41 43 44 48 49 51 53 50 51 50 50 48 49 51 49 48 46 53 58 63 67 70 67 65 69 65 65 49 45 47 44
39 38 37 41 41 44 45 45 43 41 42 44 51 51 54 54 53 51 55 57 58 57 48 47 49 55 61 64 67 73 70 65 59 56 51 57 54 46
40 42 46 48 52 50 47 45 44 44 45 49 51 54 56 55 56 55 55 56 57 60 62 56 49 51 58 56 68 65 68 66 61 60 58 47 46 44
44 46 48 51 52 53 54 54 53 51 51 52 52 56 58 60 63 65 59 52 57 60 59 58 60 56 57 60 57 58 57 61 56 52 52 47 48 49
55 54 54 55 54 54 57 58 61 59 58 59 61 66 68 67 70 68 63 59 61 60 61 59 54 46 58 53 50 44 46 42 46 52 45 47 52 49
61 62 62 61 61 61 61 63 65 65 63 63 63 66 65 67 71 68 64 61 61 61 61 53 48 46 53 53 51 49 37 42 41 42 42 43 45 46
69 66 63 61 60 59 59 62 65 66 64 66 68 71 72 72 71 65 61 57 57 58 62 57 48 37 40 45 46 46 40 42 38 39 40 39 42 36
68 64 59 58 58 59 63 68 69 68 68 72 76 77 75 70 65 62 58 59 57 58 58 55 44 37 31 38 37 34 33 33 32 31 34 32 28 16
70 65 65 63 64 67 69 69 70 71 74 80 80 75 70 67 61 58 57 56 58 58 53 56 51 40 35 26 24 24 18 16 21 23 23 17 16 20
Wind_Direction_850mb
208 203 241 265 283 247 265 249 223 201 173 145 163 235 273 286 295 295 300 298 294 291 288 285 284 282 281 283 285 286 280 273 271 273 274 277 263 283
175 189 191 208 231 212 221 263 272 241 217 174 221 283 276 291 304 304 300 306 309 314 304 297 299 293 279 273 271 271 274 275 270 272 269 261 265 285
122 128 124 141 176 165 195 207 237 257 253 253 264 272 288 303 308 299 304 306 303 286 299 300 301 301 291 276 266 260 260 266 269 266 263 253 236 236
109 124 128 148 138 141 152 159 211 230 260 272 284 297 302 294 285 292 300 280 271 274 281 296 303 305 300 290 277 267 266 262 259 258 253 245 244 247
85 92 103 120 114 118 131 156 249 275 286 292 304 302 294 289 286 290 284 282 285 270 272 283 303 298 307 308 287 271 269 263 258 253 253 247 245 245
54 52 47 54 62 49 9 342 330 327 335 323 319 312 302 299 304 296 292 290 291 289 298 254 268 269 280 296 296 289 282 273 260 258 255 252 245 245
45 24 21 20 10 355 345 335 334 334 327 324 315 299 301 308 303 307 311 308 307 311 295 266 261 269 270 292 297 292 290 287 276 263 255 251 247 243
67 47 9 355 356 0 351 352 340 329 325 330 324 323 316 310 306 303 302 307 311 305 296 289 280 287 283 264 287 288 284 283 275 267 263 254 248 242
31 35 15 360 355 356 359 1 357 348 325 309 288 285 291 292 298 299 301 304 298 297 299 299 304 303 294 273 272 275 281 289 282 272 262 257 252 249
22 13 3 359 3 3 2 3 12 9 295 296 298 298 300 301 299 304 303 300 301 305 306 295 304 297 293 288 277 276 274 284 285 271 265 264 259 253
19 7 355 360 1 0 3 3 353 345 340 335 326 321 303 292 293 303 306 309 298 300 305 295 299 301 305 308 292 264 268 276 289 276 277 265 261 262
21 6 3 4 3 5 8 360 354 353 350 347 342 330 330 324 302 293 298 309 307 304 308 294 295 296 301 295 281 266 267 268 282 282 270 266 267 271
18 14 10 8 6 8 9 0 358 353 348 344 343 344 342 334 328 317 301 290 294 292 292 305 308 297 283 284 279 267 276 285 286 279 271 263 255 255
18 16 9 1 5 7 6 4 360 356 352 349 350 342 336 337 335 333 328 318 305 299 301 291 292 289 281 282 286 284 275 275 268 263 260 267 255 248
19 17 360 360 5 5 6 0 360 358 352 351 342 336 339 337 333 331 325 319 308 300 301 301 290 288 283 277 276 278 276 272 263 266 257 256 254 260
16 9 357 1 8 4 3 1 1 354 348 340 334 341 337 334 333 331 324 323 320 311 305 299 299 289 281 278 278 281 278 262 265 256 248 252 249 253
10 5 5 4 5 1 359 357 355 350 348 344 348 338 337 336 331 329 325 324 319 316 311 311 303 302 299 284 273 279 279 272 266 256 250 242 249 248
14 9 3 1 358 355 353 352 353 350 346 346 341 343 338 335 333 332 329 323 316 314 312 308 304 305 309 299 271 276 274 269 264 256 248 249 250 252
15 8 2 357 352 350 349 349 347 347 346 345 345 344 341 335 334 333 329 324 319 317 314 312 311 306 301 290 279 286 277 277 258 248 242 240 252 258
11 5 359 354 352 350 349 348 347 347 345 344 342 339 339 337 332 331 330 326 322 323 321 322 315 298 306 287 289 284 284 264 248 242 240 250 258 260
6 2 360 356 351 348 345 341 341 340 341 341 340 339 338 334 332 331 331 331 329 328 324 326 327 313 297 298 287 281 283 268 257 255 264 268 265 257
4 1 358 354 351 347 343 341 342 342 342 342 340 338 335 333 335 335 336 334 335 334 332 338 339 330 306 297 291 284 283 280 259 253 270 269 248 230
5 4 3 358 354 349 347 345 344 343 343 340 335 334 337 339 340 339 339 339 338 340 342 339 338 325 320 311 296 295 270 257 277 276 280 269 254 242